Location: Newark
(45.9456°N, 15.4064°E)
Time: 23:17:56
(UTC+00:00)

Vanguard 3 - Pass Details

Date: 28 January 2020
Orbit: 508 x 3263 km, 33.3° (Epoch: 19 February)

Event Time Altitude Azimuth Distance (km) Brightness Sun altitude
Rises 16:32:24 0° 244° (WSW) 6,858 14.4 -6.5°
Reaches altitude 10° 16:36:54 10° 240° (WSW) 6,024 13.2 -7.2°
Maximum altitude 16:55:35 53° 172° (S) 3,658 10.5 -10.3°
Drops below altitude 10° 17:11:28 10° 102° (ESE) 5,210 10.7 -13.0°
Enters shadow 17:11:36 10° 102° (ESE) 5,238 10.7 -13.0°
Sets 17:15:01 0° 98° (E) 5,917 - -13.6°
